TimeCST,TemperatureF,Dew PointF,Humidity,Sea Level PressureIn,VisibilityMPH,Wind Direction,Wind SpeedMPH,Gust SpeedMPH,PrecipitationIn,Events,Conditions,WindDirDegrees,DateUTC
12:15 AM,52.7,49.6,89,30.29,2.5,Calm,Calm,-,N/A,,Clear,0,2013-12-18 06:15:00
12:35 AM,52.0,48.7,89,30.29,10.0,Calm,Calm,-,N/A,,Clear,0,2013-12-18 06:35:00
12:55 AM,50.5,47.5,89,30.29,7.0,Calm,Calm,-,N/A,,Clear,0,2013-12-18 06:55:00
1:15 AM,50.9,48.0,90,30.28,10.0,Calm,Calm,-,N/A,,Clear,0,2013-12-18 07:15:00
1:35 AM,50.7,47.8,90,30.27,10.0,Calm,Calm,-,N/A,,Clear,0,2013-12-18 07:35:00
1:55 AM,50.4,47.5,90,30.27,10.0,Calm,Calm,-,N/A,,Clear,0,2013-12-18 07:55:00
2:15 AM,50.5,47.7,90,30.26,10.0,Calm,Calm,-,N/A,,Clear,0,2013-12-18 08:15:00
2:35 AM,48.6,45.7,90,30.26,10.0,Calm,Calm,-,N/A,,Clear,0,2013-12-18 08:35:00
2:55 AM,47.5,44.8,90,30.26,7.0,Calm,Calm,-,N/A,,Clear,0,2013-12-18 08:55:00
3:15 AM,48.4,45.9,91,30.26,1.2,Calm,Calm,-,N/A,,Mist,0,2013-12-18 09:15:00
3:35 AM,48.4,45.7,90,30.26,5.0,ESE,3.5,-,N/A,,Clear,120,2013-12-18 09:35:00
3:55 AM,48.2,45.5,90,30.25,10.0,Calm,Calm,-,N/A,,Clear,0,2013-12-18 09:55:00
4:15 AM,47.7,45.1,91,30.26,7.0,ESE,3.5,-,N/A,,Clear,120,2013-12-18 10:15:00
4:35 AM,47.5,45.0,91,30.25,7.0,ESE,3.5,-,N/A,,Clear,120,2013-12-18 10:35:00
4:55 AM,47.3,44.8,91,30.25,7.0,Calm,Calm,-,N/A,,Clear,0,2013-12-18 10:55:00
5:15 AM,47.5,45.0,91,30.25,7.0,ESE,3.5,-,N/A,,Clear,120,2013-12-18 11:15:00
5:35 AM,46.9,44.6,92,30.25,7.0,ESE,3.5,-,N/A,,Clear,120,2013-12-18 11:35:00
5:55 AM,46.6,43.9,90,30.25,7.0,Calm,Calm,-,N/A,,Clear,0,2013-12-18 11:55:00
6:15 AM,47.5,45.0,91,30.26,7.0,Calm,Calm,-,N/A,,Clear,0,2013-12-18 12:15:00
6:35 AM,47.3,44.8,91,30.26,7.0,Calm,Calm,-,N/A,,Clear,0,2013-12-18 12:35:00
6:55 AM,46.0,43.3,90,30.26,2.5,Calm,Calm,-,N/A,,Clear,0,2013-12-18 12:55:00
7:15 AM,46.9,44.6,92,30.26,0.5,Calm,Calm,-,N/A,Fog,Fog,0,2013-12-18 13:15:00
7:35 AM,47.3,44.8,91,30.27,0.2,Calm,Calm,-,N/A,Fog,Fog,0,2013-12-18 13:35:00
7:55 AM,48.0,45.7,92,30.27,5.0,Calm,Calm,-,N/A,,Clear,0,2013-12-18 13:55:00
8:15 AM,50.2,47.8,92,30.28,4.0,Calm,Calm,-,N/A,,Scattered Clouds,0,2013-12-18 14:15:00
8:35 AM,51.4,49.1,92,30.28,4.0,Calm,Calm,-,N/A,,Scattered Clouds,0,2013-12-18 14:35:00
8:55 AM,54.5,52.0,91,30.28,5.0,Calm,Calm,-,N/A,,Clear,0,2013-12-18 14:55:00
9:15 AM,58.6,55.4,89,30.29,10.0,Calm,Calm,-,N/A,,Clear,0,2013-12-18 15:15:00
9:35 AM,63.1,56.3,78,30.29,10.0,SE,4.6,-,N/A,,Clear,140,2013-12-18 15:35:00
9:55 AM,67.3,56.8,69,30.29,10.0,SE,4.6,-,N/A,,Clear,130,2013-12-18 15:55:00
10:15 AM,69.8,56.5,63,30.28,10.0,ESE,6.9,-,N/A,,Scattered Clouds,120,2013-12-18 16:15:00
10:35 AM,71.1,56.8,61,30.28,10.0,SE,8.1,-,N/A,,Clear,130,2013-12-18 16:35:00
10:55 AM,72.3,56.3,57,30.27,10.0,SE,8.1,-,N/A,,Clear,130,2013-12-18 16:55:00
11:15 AM,73.6,55.9,54,30.26,10.0,SSE,9.2,-,N/A,,Clear,160,2013-12-18 17:15:00
11:35 AM,73.8,55.8,53,30.25,10.0,ESE,8.1,-,N/A,,Scattered Clouds,120,2013-12-18 17:35:00
11:55 AM,74.1,55.4,52,30.24,10.0,SE,9.2,-,N/A,,Scattered Clouds,140,2013-12-18 17:55:00
12:15 PM,75.7,55.0,49,30.23,10.0,South,10.4,-,N/A,,Scattered Clouds,170,2013-12-18 18:15:00
12:35 PM,75.4,54.0,47,30.21,10.0,South,9.2,-,N/A,,Scattered Clouds,170,2013-12-18 18:35:00
12:55 PM,75.6,53.8,47,30.19,10.0,SE,9.2,-,N/A,,Scattered Clouds,130,2013-12-18 18:55:00
1:15 PM,76.5,52.7,43,30.18,10.0,SE,9.2,-,N/A,,Scattered Clouds,140,2013-12-18 19:15:00
1:35 PM,77.4,51.4,40,30.16,10.0,SSE,12.7,-,N/A,,Scattered Clouds,150,2013-12-18 19:35:00
1:55 PM,78.1,51.4,39,30.15,10.0,SSE,13.8,-,N/A,,Scattered Clouds,150,2013-12-18 19:55:00
2:15 PM,77.7,51.8,40,30.14,10.0,SSE,10.4,16.1,N/A,,Scattered Clouds,150,2013-12-18 20:15:00
2:35 PM,77.2,52.0,41,30.13,10.0,SE,9.2,17.3,N/A,,Clear,140,2013-12-18 20:35:00
2:55 PM,77.4,52.3,42,30.12,10.0,SSE,9.2,-,N/A,,Scattered Clouds,150,2013-12-18 20:55:00
3:15 PM,79.0,52.5,40,30.12,10.0,South,8.1,-,N/A,,Scattered Clouds,190,2013-12-18 21:15:00
3:35 PM,78.8,51.4,38,30.11,10.0,SE,9.2,-,N/A,,Mostly Cloudy,140,2013-12-18 21:35:00
3:55 PM,78.3,51.1,39,30.11,10.0,SE,9.2,18.4,N/A,,Mostly Cloudy,140,2013-12-18 21:55:00
4:15 PM,78.1,50.9,39,30.10,10.0,SE,12.7,-,N/A,,Overcast,130,2013-12-18 22:15:00
4:35 PM,76.3,52.0,43,30.10,10.0,SE,11.5,-,N/A,,Scattered Clouds,140,2013-12-18 22:35:00
4:55 PM,74.7,53.2,47,30.10,10.0,SSE,8.1,-,N/A,,Scattered Clouds,150,2013-12-18 22:55:00
5:15 PM,73.2,53.6,50,30.11,10.0,SE,9.2,-,N/A,,Scattered Clouds,140,2013-12-18 23:15:00
5:35 PM,72.1,53.8,52,30.11,10.0,SSE,6.9,-,N/A,,Mostly Cloudy,160,2013-12-18 23:35:00
5:55 PM,71.2,54.5,55,30.10,10.0,SSE,8.1,-,N/A,,Overcast,160,2013-12-18 23:55:00
6:15 PM,71.2,55.4,57,30.11,10.0,SSE,8.1,-,N/A,,Overcast,160,2013-12-19 00:15:00
6:35 PM,71.6,55.6,57,30.11,10.0,SSE,12.7,-,N/A,,Overcast,160,2013-12-19 00:35:00
6:55 PM,71.2,55.9,58,30.12,10.0,SSE,10.4,-,N/A,,Overcast,150,2013-12-19 00:55:00
7:15 PM,70.3,55.9,60,30.12,10.0,SSE,10.4,-,N/A,,Overcast,150,2013-12-19 01:15:00
7:35 PM,70.0,56.3,62,30.12,10.0,SSE,10.4,-,N/A,,Overcast,150,2013-12-19 01:35:00
7:55 PM,69.4,56.7,64,30.13,10.0,SSE,9.2,-,N/A,,Overcast,150,2013-12-19 01:55:00
8:15 PM,68.9,56.8,65,30.13,10.0,SSE,9.2,-,N/A,,Overcast,150,2013-12-19 02:15:00
8:35 PM,68.0,57.2,68,30.13,10.0,SE,8.1,-,N/A,,Overcast,140,2013-12-19 02:35:00
8:55 PM,67.6,57.2,69,30.13,10.0,SSE,8.1,-,N/A,,Overcast,150,2013-12-19 02:55:00
9:15 PM,66.7,57.2,71,30.13,10.0,SE,6.9,-,N/A,,Overcast,140,2013-12-19 03:15:00
9:35 PM,65.7,57.2,74,30.12,10.0,SE,6.9,-,N/A,,Overcast,140,2013-12-19 03:35:00
9:55 PM,65.1,57.2,75,30.12,10.0,SE,6.9,-,N/A,,Mostly Cloudy,140,2013-12-19 03:55:00
10:15 PM,64.4,57.2,77,30.12,10.0,SE,6.9,-,N/A,,Mostly Cloudy,140,2013-12-19 04:15:00
10:35 PM,64.6,57.6,78,30.12,10.0,SSE,8.1,-,N/A,,Scattered Clouds,150,2013-12-19 04:35:00
10:55 PM,63.5,57.2,80,30.11,10.0,SE,5.8,-,N/A,,Scattered Clouds,140,2013-12-19 04:55:00
11:15 PM,62.2,56.7,82,30.10,10.0,SE,5.8,-,N/A,,Clear,140,2013-12-19 05:15:00
11:35 PM,60.4,55.8,85,30.09,10.0,SE,5.8,-,N/A,,Clear,140,2013-12-19 05:35:00
11:55 PM,60.3,56.1,86,30.08,10.0,SE,5.8,-,N/A,,Scattered Clouds,140,2013-12-19 05:55:00